Time,TemperatureF,DewpointF,PressureIn,WindDirection,WindDirectionDegrees,WindSpeedMPH,WindSpeedGustMPH,Humidity,HourlyPrecipIn,Conditions,Clouds,dailyrainin,SoftwareType,DateUTC
2013-01-16 00:00:00,34.0,26.0,-100.00,WNW,299,4.0,-999.0,72,0.00,,,0.03,,2013-01-16 06:00:00,
2013-01-16 00:32:00,34.0,26.0,-100.00,WNW,299,4.0,-999.0,72,0.00,,,0.03,,2013-01-16 06:32:00,
2013-01-16 00:43:00,34.0,26.0,-100.00,WNW,299,4.0,-999.0,72,0.00,,,0.03,,2013-01-16 06:43:00,
2013-01-16 00:53:00,34.0,26.0,-100.00,WNW,299,4.0,-999.0,72,0.00,,,0.03,,2013-01-16 06:53:00,
2013-01-16 01:00:00,33.0,24.0,-100.00,WNW,301,5.0,-999.0,69,0.00,,,0.03,,2013-01-16 07:00:00,
2013-01-16 01:33:00,33.0,24.0,-100.00,WNW,301,5.0,-999.0,69,0.00,,,0.03,,2013-01-16 07:33:00,
2013-01-16 01:42:00,33.0,24.0,-100.00,WNW,301,5.0,-999.0,69,0.00,,,0.03,,2013-01-16 07:42:00,
2013-01-16 01:52:00,33.0,24.0,-100.00,WNW,301,5.0,-999.0,69,0.00,,,0.03,,2013-01-16 07:52:00,
2013-01-16 02:00:00,33.0,24.0,-100.00,WNW,301,3.0,-999.0,69,0.00,,,0.03,,2013-01-16 08:00:00,
2013-01-16 02:32:00,33.0,24.0,-100.00,WNW,301,3.0,-999.0,69,0.00,,,0.03,,2013-01-16 08:32:00,
2013-01-16 02:42:00,33.0,24.0,-100.00,WNW,301,3.0,-999.0,69,0.00,,,0.03,,2013-01-16 08:42:00,
2013-01-16 02:53:00,33.0,24.0,-100.00,WNW,301,3.0,-999.0,69,0.00,,,0.03,,2013-01-16 08:53:00,
2013-01-16 03:00:00,32.0,23.0,-100.00,WNW,300,4.0,-999.0,67,0.00,,,0.03,,2013-01-16 09:00:00,
2013-01-16 03:32:00,32.0,23.0,-100.00,WNW,300,4.0,-999.0,67,0.00,,,0.03,,2013-01-16 09:32:00,
2013-01-16 03:43:00,32.0,23.0,-100.00,WNW,300,4.0,-999.0,67,0.00,,,0.03,,2013-01-16 09:43:00,
2013-01-16 03:53:00,32.0,23.0,-100.00,WNW,300,4.0,-999.0,67,0.00,,,0.03,,2013-01-16 09:53:00,
2013-01-16 04:00:00,32.0,22.0,-100.00,NW,304,3.0,-999.0,67,0.00,,,0.03,,2013-01-16 10:00:00,
2013-01-16 04:32:00,32.0,22.0,-100.00,NW,304,3.0,-999.0,67,0.00,,,0.03,,2013-01-16 10:32:00,
2013-01-16 04:43:00,32.0,22.0,-100.00,NW,304,3.0,-999.0,67,0.00,,,0.03,,2013-01-16 10:43:00,
2013-01-16 04:53:00,32.0,22.0,-100.00,NW,304,3.0,-999.0,67,0.00,,,0.03,,2013-01-16 10:53:00,
2013-01-16 05:00:00,32.0,22.0,-100.00,WNW,301,4.0,-999.0,65,0.00,,,0.03,,2013-01-16 11:00:00,
2013-01-16 05:33:00,32.0,22.0,-100.00,WNW,301,4.0,-999.0,65,0.00,,,0.03,,2013-01-16 11:33:00,
2013-01-16 05:43:00,32.0,22.0,-100.00,WNW,301,4.0,-999.0,65,0.00,,,0.03,,2013-01-16 11:43:00,
2013-01-16 05:53:00,32.0,22.0,-100.00,WNW,301,4.0,-999.0,65,0.00,,,0.03,,2013-01-16 11:53:00,
2013-01-16 06:00:00,33.0,23.0,-100.00,WNW,299,3.0,-999.0,66,0.00,,,0.03,,2013-01-16 12:00:00,
2013-01-16 06:33:00,33.0,23.0,-100.00,WNW,299,3.0,-999.0,66,0.00,,,0.03,,2013-01-16 12:33:00,
2013-01-16 06:43:00,33.0,23.0,-100.00,WNW,299,3.0,-999.0,66,0.00,,,0.03,,2013-01-16 12:43:00,
2013-01-16 06:53:00,33.0,23.0,-100.00,WNW,299,3.0,-999.0,66,0.00,,,0.03,,2013-01-16 12:53:00,
2013-01-16 07:00:00,32.0,17.0,-100.00,NW,309,3.0,-999.0,53,0.00,,,0.03,,2013-01-16 13:00:00,
2013-01-16 07:33:00,32.0,17.0,-100.00,NW,309,3.0,-999.0,53,0.00,,,0.03,,2013-01-16 13:33:00,
2013-01-16 07:43:00,32.0,17.0,-100.00,NW,309,3.0,-999.0,53,0.00,,,0.03,,2013-01-16 13:43:00,
2013-01-16 07:53:00,32.0,17.0,-100.00,NW,309,3.0,-999.0,53,0.00,,,0.03,,2013-01-16 13:53:00,
2013-01-16 08:00:00,27.0,17.0,-100.00,SSE,147,2.0,-999.0,66,0.00,,,0.03,,2013-01-16 14:00:00,
2013-01-16 08:33:00,27.0,17.0,-100.00,SSE,147,2.0,-999.0,66,0.00,,,0.03,,2013-01-16 14:33:00,
2013-01-16 08:43:00,27.0,17.0,-100.00,SSE,147,2.0,-999.0,66,0.00,,,0.03,,2013-01-16 14:43:00,
2013-01-16 08:53:00,27.0,17.0,-100.00,SSE,147,2.0,-999.0,66,0.00,,,0.03,,2013-01-16 14:53:00,
2013-01-16 09:00:00,31.0,16.0,-100.00,SSE,164,0.0,-999.0,53,0.00,,,0.03,,2013-01-16 15:00:00,
2013-01-16 09:43:00,31.0,16.0,-100.00,SSE,164,0.0,-999.0,53,0.00,,,0.03,,2013-01-16 15:43:00,
2013-01-16 09:53:00,31.0,16.0,-100.00,SSE,164,0.0,-999.0,53,0.00,,,0.03,,2013-01-16 15:53:00,
2013-01-16 10:00:00,36.0,17.0,-100.00,NW,307,1.0,-999.0,46,0.00,,,0.03,,2013-01-16 16:00:00,
2013-01-16 10:33:00,36.0,17.0,-100.00,NW,307,1.0,-999.0,46,0.00,,,0.03,,2013-01-16 16:33:00,
2013-01-16 10:43:00,36.0,17.0,-100.00,NW,307,1.0,-999.0,46,0.00,,,0.03,,2013-01-16 16:43:00,
2013-01-16 10:53:00,36.0,17.0,-100.00,NW,307,1.0,-999.0,46,0.00,,,0.03,,2013-01-16 16:53:00,
2013-01-16 11:00:00,38.0,15.0,-100.00,ENE,65,0.0,-999.0,38,0.00,,,0.03,,2013-01-16 17:00:00,
2013-01-16 11:33:00,38.0,15.0,-100.00,ENE,65,0.0,-999.0,38,0.00,,,0.03,,2013-01-16 17:33:00,
2013-01-16 11:44:00,38.0,15.0,-100.00,ENE,65,0.0,-999.0,38,0.00,,,0.03,,2013-01-16 17:44:00,
2013-01-16 11:53:00,38.0,15.0,-100.00,ENE,65,0.0,-999.0,38,0.00,,,0.03,,2013-01-16 17:53:00,
2013-01-16 12:00:00,40.0,11.0,-100.00,WNW,301,1.0,-999.0,30,0.00,,,0.01,,2013-01-16 18:00:00,
2013-01-16 12:33:00,40.0,11.0,-100.00,WNW,301,1.0,-999.0,30,0.00,,,0.01,,2013-01-16 18:33:00,
2013-01-16 12:43:00,40.0,11.0,-100.00,WNW,301,1.0,-999.0,30,0.00,,,0.01,,2013-01-16 18:43:00,
2013-01-16 12:53:00,40.0,11.0,-100.00,WNW,301,1.0,-999.0,30,0.00,,,0.01,,2013-01-16 18:53:00,
2013-01-16 13:00:00,42.0,14.0,-100.00,ESE,104,2.0,-999.0,32,0.00,,,0.00,,2013-01-16 19:00:00,
2013-01-16 13:33:00,42.0,14.0,-100.00,ESE,104,2.0,-999.0,32,0.00,,,0.00,,2013-01-16 19:33:00,
2013-01-16 13:43:00,42.0,14.0,-100.00,ESE,104,2.0,-999.0,32,0.00,,,0.00,,2013-01-16 19:43:00,
2013-01-16 13:53:00,42.0,14.0,-100.00,ESE,104,2.0,-999.0,32,0.00,,,0.00,,2013-01-16 19:53:00,
2013-01-16 15:00:00,46.0,16.0,-100.00,East,90,1.0,-999.0,29,0.00,,,0.00,,2013-01-16 21:00:00,
2013-01-16 15:33:00,46.0,16.0,-100.00,East,90,1.0,-999.0,29,0.00,,,0.00,,2013-01-16 21:33:00,
2013-01-16 15:43:00,46.0,16.0,-100.00,East,90,1.0,-999.0,29,0.00,,,0.00,,2013-01-16 21:43:00,
2013-01-16 15:53:00,46.0,16.0,-100.00,East,90,1.0,-999.0,29,0.00,,,0.00,,2013-01-16 21:53:00,
2013-01-16 16:00:00,48.0,16.0,-100.00,NNW,343,1.0,-999.0,28,0.00,,,0.00,,2013-01-16 22:00:00,
2013-01-16 16:33:00,48.0,16.0,-100.00,NNW,343,1.0,-999.0,28,0.00,,,0.00,,2013-01-16 22:33:00,
2013-01-16 16:43:00,48.0,16.0,-100.00,NNW,343,1.0,-999.0,28,0.00,,,0.00,,2013-01-16 22:43:00,
2013-01-16 16:53:00,48.0,16.0,-100.00,NNW,343,1.0,-999.0,28,0.00,,,0.00,,2013-01-16 22:53:00,
2013-01-16 17:00:00,46.0,19.0,-100.00,NW,308,2.0,-999.0,33,0.00,,,0.00,,2013-01-16 23:00:00,
2013-01-16 17:32:00,46.0,19.0,-100.00,NW,308,2.0,-999.0,33,0.00,,,0.00,,2013-01-16 23:32:00,
2013-01-16 17:43:00,46.0,19.0,-100.00,NW,308,2.0,-999.0,33,0.00,,,0.00,,2013-01-16 23:43:00,
2013-01-16 17:53:00,46.0,19.0,-100.00,NW,308,2.0,-999.0,33,0.00,,,0.00,,2013-01-16 23:53:00,
2013-01-16 18:00:00,44.0,17.0,-100.00,NW,310,4.0,-999.0,34,0.00,,,0.00,,2013-01-17 00:00:00,
2013-01-16 18:32:00,44.0,17.0,-100.00,NW,310,4.0,-999.0,34,0.00,,,0.00,,2013-01-17 00:32:00,
2013-01-16 18:42:00,44.0,17.0,-100.00,NW,310,4.0,-999.0,34,0.00,,,0.00,,2013-01-17 00:42:00,
2013-01-16 18:52:00,44.0,17.0,-100.00,NW,310,4.0,-999.0,34,0.00,,,0.00,,2013-01-17 00:52:00,
2013-01-16 19:00:00,42.0,17.0,-100.00,NW,309,4.0,-999.0,37,0.00,,,0.00,,2013-01-17 01:00:00,
2013-01-16 19:33:00,42.0,17.0,-100.00,NW,309,4.0,-999.0,37,0.00,,,0.00,,2013-01-17 01:33:00,
2013-01-16 19:43:00,42.0,17.0,-100.00,NW,309,4.0,-999.0,37,0.00,,,0.00,,2013-01-17 01:43:00,
2013-01-16 19:52:00,42.0,17.0,-100.00,NW,309,4.0,-999.0,37,0.00,,,0.00,,2013-01-17 01:52:00,
2013-01-16 20:00:00,39.0,19.0,-100.00,WNW,303,3.0,-999.0,43,0.00,,,0.00,,2013-01-17 02:00:00,
2013-01-16 20:32:00,39.0,19.0,-100.00,WNW,303,3.0,-999.0,43,0.00,,,0.00,,2013-01-17 02:32:00,
2013-01-16 20:43:00,39.0,19.0,-100.00,WNW,303,3.0,-999.0,43,0.00,,,0.00,,2013-01-17 02:43:00,
2013-01-16 20:52:00,39.0,19.0,-100.00,WNW,303,3.0,-999.0,43,0.00,,,0.00,,2013-01-17 02:52:00,
2013-01-16 21:00:00,36.0,23.0,-100.00,SE,143,1.0,-999.0,59,0.00,,,0.00,,2013-01-17 03:00:00,
2013-01-16 21:32:00,36.0,23.0,-100.00,SE,143,1.0,-999.0,59,0.00,,,0.00,,2013-01-17 03:32:00,
2013-01-16 21:43:00,36.0,23.0,-100.00,SE,143,1.0,-999.0,59,0.00,,,0.00,,2013-01-17 03:43:00,
2013-01-16 21:52:00,36.0,23.0,-100.00,SE,143,1.0,-999.0,59,0.00,,,0.00,,2013-01-17 03:52:00,
2013-01-16 22:00:00,32.0,19.0,-100.00,South,175,1.0,-999.0,58,0.00,,,0.00,,2013-01-17 04:00:00,
2013-01-16 22:32:00,32.0,19.0,-100.00,South,175,1.0,-999.0,58,0.00,,,0.00,,2013-01-17 04:32:00,
2013-01-16 22:43:00,32.0,19.0,-100.00,South,175,1.0,-999.0,58,0.00,,,0.00,,2013-01-17 04:43:00,
2013-01-16 22:52:00,32.0,19.0,-100.00,South,175,1.0,-999.0,58,0.00,,,0.00,,2013-01-17 04:52:00,
2013-01-16 23:00:00,32.0,26.0,-100.00,NW,317,0.0,-999.0,79,0.00,,,0.00,,2013-01-17 05:00:00,
2013-01-16 23:33:00,32.0,26.0,-100.00,NW,317,0.0,-999.0,79,0.00,,,0.00,,2013-01-17 05:33:00,
2013-01-16 23:43:00,32.0,26.0,-100.00,NW,317,0.0,-999.0,79,0.00,,,0.00,,2013-01-17 05:43:00,
2013-01-16 23:53:00,32.0,26.0,-100.00,NW,317,0.0,-999.0,79,0.00,,,0.00,,2013-01-17 05:53:00,